Location: Saint-Gilles les Bains
(21.0539°S, 55.2287°E)
Time: 02:49:44
(UTC+04:00)

Hubble Space Telescope - Pass Details

Date: 15 April 2024
Orbit: 512 x 516 km, 28.5° (Epoch: 18 May)

Event Time Altitude Azimuth Distance (km) Brightness Sun altitude
Exits shadow 05:57:54 11° 266° (W) 1,698 2.6 -8.4°
Maximum altitude 06:01:38 43° 194° (SSW) 738 1.3 -7.6°
Drops below altitude 10° 06:05:31 10° 121° (ESE) 1,754 4.2 -6.7°
Sets 06:07:51 0° 114° (ESE) 2,643 5.4 -6.1°
